Location: Rometta
(44.2000°N, 10.0500°E)
Time: 12:40:40
(UTC+00:00)

Okean-O - Pass Details

Date: 20 January 2021
Orbit: 638 x 641 km, 98.2° (Epoch: 06 March)

Event Time Altitude Azimuth Distance (km) Brightness Sun altitude
Rises 18:05:36 0° 170° (S) 2,932 6.0 -19.8°
Reaches altitude 10° 18:07:48 10° 172° (S) 2,027 5.2 -20.2°
Maximum altitude 18:12:13 74° 258° (WSW) 670 2.8 -21.0°
Drops below altitude 10° 18:16:40 10° 343° (NNW) 2,044 5.3 -21.8°
Sets 18:18:54 0° 345° (NNW) 2,958 6.1 -22.2°
